RH
25 30 31 28 19 14 14 13 21 39 28 18 13 11 10 10 9 9 8 8 8 8 9 9 10 11 12 12 14 15 16 17 16 15 14 14 14 13 13 12 12 11 11 11
20 20 17 17 16 15 20 37 36 21 14 11 10 9 10 10 9 9 8 8 8 11 12 11 11 12 13 16 18 18 17 16 16 16 16 15 14 14 13 12 12 12 12 14
14 16 19 22 44 54 44 26 17 14 11 10 10 10 10 10 9 9 8 9 10 12 14 14 14 14 17 20 19 19 18 17 17 16 16 16 15 14 14 14 15 16 18 18
21 42 51 47 37 28 20 16 13 12 11 11 11 9 10 10 9 9 10 11 12 14 14 16 19 21 20 20 20 20 19 19 19 18 17 17 16 16 17 19 21 22 22 22
38 50 65 42 23 18 15 13 12 12 12 11 11 9 9 10 10 11 12 14 15 16 18 22 24 22 22 22 22 22 23 23 21 20 18 18 18 18 20 22 23 24 22 19
20 31 27 20 15 14 13 13 13 12 12 10 11 9 10 14 16 16 16 17 20 23 25 25 24 25 26 27 26 26 24 22 19 18 18 20 24 26 25 22 19 15 10 7
16 17 16 15 14 14 14 14 13 12 12 12 11 10 16 20 20 20 20 20 21 21 26 29 29 29 29 28 26 23 20 21 22 27 28 27 23 18 14 10 7 6 5 5
14 14 14 15 14 14 14 15 15 13 12 12 14 16 20 22 23 22 22 23 25 29 30 31 31 29 26 23 23 25 29 31 30 25 20 11 8 6 6 6 6 5 5 5
15 16 15 15 14 15 16 17 18 18 18 18 22 24 24 25 25 26 28 31 34 36 35 31 27 25 26 34 36 34 30 24 17 9 7 7 7 7 8 8 8 7 6 6
17 17 20 20 19 21 21 26 28 30 28 27 27 27 28 28 31 35 37 39 39 34 29 31 36 39 38 34 29 24 15 8 8 8 9 8 9 10 11 11 10 8 6 6
18 19 27 30 31 32 33 34 34 33 31 30 28 30 34 38 38 37 34 31 31 38 42 40 36 32 29 24 16 8 8 10 11 10 10 12 14 15 14 11 8 6 6 7
20 21 28 31 32 34 35 36 36 34 34 35 37 34 37 34 32 32 37 42 42 37 34 33 31 25 14 9 9 11 14 15 15 15 17 20 19 15 10 8 6 7 6 6
35 35 38 39 39 38 37 37 38 37 36 34 34 37 41 42 41 40 41 39 37 35 32 23 13 9 10 13 18 21 21 20 22 23 24 21 14 10 8 7 6 6 6 6
41 38 37 37 36 36 37 36 37 40 44 47 46 46 46 43 44 44 40 35 27 19 13 10 10 15 20 24 22 22 25 28 30 28 19 13 10 9 8 7 6 6 8 11
40 38 36 36 38 45 53 55 54 53 56 52 53 53 50 42 32 24 17 13 11 10 10 13 14 20 25 26 28 32 34 33 26 16 13 12 12 11 8 6 7 13 31 50
43 52 56 58 56 53 51 57 61 62 60 53 43 32 22 14 10 9 9 9 9 10 13 15 26 31 30 32 39 38 30 19 15 14 14 14 10 7 6 10 28 50 49 40
60 59 56 52 61 58 55 55 49 42 33 24 15 11 9 9 9 10 10 11 12 14 18 28 31 37 46 40 28 20 15 15 15 16 13 9 7 8 22 47 47 43 29 18
65 64 62 60 57 51 41 34 24 14 10 9 9 10 12 15 18 21 23 25 29 35 43 48 48 33 23 19 14 14 16 17 16 10 8 9 19 37 47 47 39 21 16 41
68 65 60 48 38 28 14 9 9 10 14 29 37 42 45 46 45 52 54 53 54 54 43 23 16 13 12 12 14 19 18 13 10 8 14 34 43 44 46 33 19 17 48 50
47 36 25 15 9 7 8 11 19 25 31 38 46 51 50 42 40 50 56 49 28 17 12 9 9 10 14 19 21 17 14 12 9 15 37 51 45 44 34 18 19 54 57 88
12 8 8 8 9 12 24 24 26 32 38 42 46 48 49 42 33 22 17 15 12 10 10 11 14 18 22 21 17 15 12 9 15 32 47 44 34 37 23 18 58 65 84 92
11 12 13 16 21 20 21 25 34 40 42 46 55 57 46 30 21 20 17 13 12 13 15 18 20 22 20 17 16 12 11 14 33 44 48 34 41 31 17 56 70 91 89 88
17 21 20 23 23 22 23 27 32 41 56 59 51 38 27 25 24 20 16 15 16 19 20 21 21 18 17 14 12 14 18 34 50 52 40 47 30 18 41 68 90 95 98 89
19 18 18 20 25 28 39 53 66 64 50 37 29 27 26 26 22 17 18 22 22 22 22 19 17 14 12 16 21 25 35 63 56 46 54 33 21 27 79 91 86 96 89 96
28 40 53 58 63 65 64 57 41 36 32 31 30 30 30 27 21 24 28 25 24 21 18 15 13 13 20 27 31 34 43 59 54 60 35 24 23 80 91 99 93 96 97 87
39 46 52 54 55 50 45 40 37 37 35 33 32 30 26 25 27 29 27 24 21 17 14 15 19 25 33 41 47 74 75 53 58 35 26 23 63 91 100 94 100 94 93 97
Wind_Speed
31 30 27 27 28 27 26 25 25 22 24 24 23 19 24 29 26 30 33 32 31 30 29 33 32 31 32 33 33 33 34 35 37 38 39 41 42 44 46 47 49 51 53 55
27 26 28 27 25 25 26 25 24 24 26 25 23 19 22 28 28 30 30 30 30 29 30 33 33 33 33 33 33 34 36 37 39 41 42 44 45 48 50 52 54 56 58 59
26 25 24 24 23 23 24 24 25 26 26 26 26 22 24 29 32 31 31 31 32 31 32 31 32 34 34 34 35 36 38 40 43 44 46 48 50 52 54 56 58 60 62 65
24 21 19 20 22 24 23 24 25 26 27 28 28 33 23 30 30 31 30 31 31 32 33 33 33 34 35 37 37 39 41 44 46 48 50 53 55 56 58 59 62 65 67 70
22 23 21 20 21 22 22 24 26 29 30 31 28 36 25 26 27 29 30 30 30 31 32 32 33 36 36 38 40 42 46 49 51 52 54 56 58 61 63 66 67 69 70 71
20 21 21 21 22 24 25 26 29 31 31 33 29 31 28 25 26 27 28 28 29 30 33 35 35 35 38 41 44 47 50 52 54 56 58 61 64 66 67 68 69 69 69 69
18 19 20 22 23 26 27 28 30 32 31 30 29 29 25 26 27 28 29 30 32 34 34 35 37 40 43 46 49 51 53 56 58 61 63 64 64 65 66 67 67 68 69 71
19 19 21 22 25 27 27 28 29 31 30 28 28 28 28 29 30 31 31 32 33 34 36 39 42 44 47 50 52 54 57 60 61 61 61 60 61 62 63 64 67 71 74 77
19 20 22 23 25 25 25 26 27 28 28 29 28 28 30 29 31 31 33 34 36 39 40 43 46 48 51 53 55 57 59 60 58 57 57 58 60 62 66 71 75 78 81 84
19 20 20 21 23 24 25 25 25 27 30 30 30 30 31 31 32 33 36 39 40 43 45 46 49 52 54 56 57 57 55 54 55 57 57 61 65 69 74 78 81 84 87 88
22 22 20 21 22 24 25 25 27 28 29 31 33 31 32 33 35 38 41 42 43 44 48 51 53 55 56 56 54 52 53 56 57 59 63 67 72 76 80 83 85 88 88 88
22 22 21 22 22 24 25 25 27 28 29 31 32 35 35 37 41 43 44 45 46 49 52 54 55 55 54 52 52 55 57 59 61 65 69 73 77 80 82 84 87 88 89 90
20 20 21 22 23 23 24 25 26 29 31 32 36 37 40 42 45 44 45 48 50 53 54 53 51 49 49 52 55 57 60 63 67 71 74 77 79 82 84 86 87 89 88 81
19 19 20 21 22 23 24 27 30 32 34 36 37 39 43 47 47 48 49 51 52 52 51 51 48 49 51 54 57 61 65 68 71 74 76 78 80 82 84 86 87 80 73 65
18 19 21 24 25 27 28 31 35 36 39 43 41 43 44 45 46 47 48 49 50 51 50 49 52 54 57 60 63 65 68 71 73 74 75 77 79 82 84 83 71 63 58 57
22 23 25 28 30 33 34 36 38 40 42 43 45 45 43 41 42 44 45 49 50 50 52 54 55 58 62 64 66 67 69 71 71 72 74 78 81 81 75 62 57 55 56 59
27 29 31 33 34 38 39 38 39 40 40 40 39 38 39 39 42 44 47 49 51 54 56 58 61 63 63 64 66 67 68 68 70 73 76 77 75 67 57 55 55 57 59 61
31 34 37 38 39 39 39 38 38 37 36 34 35 37 38 40 43 47 50 52 54 57 59 59 60 62 63 63 64 65 67 68 71 74 74 68 58 54 54 55 57 59 58 52
35 36 36 36 37 38 35 34 33 32 31 30 34 37 41 45 46 48 52 53 55 56 57 58 59 61 63 64 65 65 66 69 72 69 59 52 53 53 54 56 59 55 47 43
33 34 35 36 36 35 32 32 30 32 33 36 40 44 49 50 49 48 50 51 53 54 54 56 58 60 62 63 64 66 69 71 66 55 49 51 55 55 55 59 53 44 42 38
31 30 28 30 32 30 28 32 35 37 41 44 48 52 50 46 46 48 51 53 53 54 57 58 60 62 63 65 66 69 69 63 53 47 49 54 57 56 57 53 44 42 39 35
26 27 26 28 31 33 34 37 39 42 46 50 54 48 45 48 50 54 54 54 56 58 60 61 63 65 67 68 69 66 59 52 47 47 51 54 53 53 54 46 39 37 32 29
23 25 30 32 36 37 39 41 43 47 52 50 44 47 50 53 57 58 56 58 60 61 63 64 66 67 70 68 62 55 50 45 45 47 52 50 50 54 47 38 34 28 27 31
26 30 34 38 38 40 42 44 48 48 45 47 49 53 56 58 58 58 60 62 63 64 65 67 70 71 67 57 51 47 44 45 47 48 48 47 51 44 37 35 29 29 31 34
31 36 39 41 41 44 44 44 42 45 49 51 54 57 58 59 60 61 63 65 66 67 69 71 70 65 57 50 45 43 41 43 44 43 43 47 44 38 30 29 29 30 33 33
35 38 42 41 41 41 40 43 48 50 52 54 56 58 60 60 60 62 66 68 68 70 71 66 61 54 46 40 38 38 38 41 40 39 43 43 37 29 28 20 24 31 30 30
Wind_Direction
226 232 239 245 248 253 255 258 263 268 267 262 262 261 265 271 270 269 272 276 279 279 278 278 280 279 277 275 275 276 276 277 279 280 281 281 282 282 282 282 282 283 284 285
230 235 239 244 248 251 255 260 265 264 265 268 267 264 264 270 272 271 277 278 278 276 274 276 278 277 276 275 276 277 279 280 281 281 282 283 284 284 285 286 286 286 287 287
229 234 240 244 246 250 256 261 263 266 270 275 276 273 276 276 277 277 277 277 275 274 275 276 275 276 277 277 278 280 281 281 281 282 283 284 285 285 286 286 286 287 288 288
229 233 239 244 249 253 258 262 265 269 272 275 280 281 281 278 278 278 275 274 276 277 278 278 277 277 277 279 280 280 280 281 283 285 287 287 287 287 287 288 289 291 292 292
228 234 241 248 252 257 262 265 269 272 277 281 286 285 287 281 278 277 277 278 279 278 277 277 278 278 277 277 279 280 282 284 286 286 286 287 288 290 291 292 294 295 295 295
229 236 244 249 254 260 264 267 271 275 279 280 283 284 291 286 282 281 283 284 281 278 276 277 276 275 277 280 281 282 285 287 288 289 291 293 295 296 297 297 296 295 295 295
232 237 244 251 256 262 268 273 276 278 279 284 285 284 287 286 285 285 283 281 278 278 278 277 279 282 283 285 287 290 291 292 294 296 297 298 298 297 296 296 298 299 298 297
241 247 251 256 260 265 268 272 276 279 283 282 282 285 285 283 284 284 283 281 281 281 280 284 287 289 290 290 292 293 294 295 297 298 299 298 297 298 300 301 301 300 300 299
251 256 258 261 264 266 269 271 274 278 280 281 281 283 283 285 285 286 287 285 284 285 290 291 292 291 290 291 293 295 296 297 298 297 296 298 299 300 302 303 303 303 303 302
254 257 260 262 265 267 270 272 274 276 279 281 283 285 286 286 287 286 286 286 289 293 293 292 291 291 293 295 296 296 297 296 294 295 298 299 301 303 304 305 305 306 305 303
256 258 260 263 264 268 272 275 277 278 282 285 286 286 287 288 287 285 285 289 292 292 291 291 291 294 295 295 296 296 293 294 297 297 300 302 304 304 306 306 306 305 304 302
263 264 267 270 273 275 276 278 279 282 284 283 287 287 290 288 287 289 294 296 293 293 293 293 294 295 294 296 296 295 297 299 300 301 302 303 304 306 306 306 306 306 303 301
269 272 273 275 276 278 281 282 282 282 284 288 287 292 291 290 292 298 297 295 294 292 292 293 292 294 297 298 299 298 298 299 301 302 304 305 306 306 307 308 306 303 303 303
273 275 277 278 279 281 283 284 285 287 289 288 290 291 292 296 297 295 294 292 292 292 292 293 295 297 296 296 298 300 301 301 302 304 305 306 307 308 308 306 304 305 305 305
276 278 280 282 284 285 285 287 289 290 289 290 292 292 292 292 293 292 292 291 290 290 290 291 294 296 299 300 302 301 301 303 306 306 308 308 308 308 306 306 307 307 307 306
279 282 282 283 286 285 287 289 290 290 292 293 294 295 296 294 292 292 290 288 289 289 291 297 299 299 300 301 302 304 306 306 307 308 308 308 309 307 309 310 309 310 308 307
284 286 286 287 288 290 292 291 291 291 292 293 295 297 295 294 292 292 292 293 294 295 296 296 297 299 303 305 307 306 306 308 309 309 310 309 310 312 312 312 311 310 310 309
288 289 289 291 292 292 293 294 293 294 295 298 297 295 297 298 298 297 297 297 297 297 298 300 303 305 306 306 307 309 309 310 310 311 311 312 313 314 314 312 312 312 311 308
288 288 289 291 291 293 296 294 295 297 299 298 299 300 301 301 300 299 298 298 299 300 302 305 307 308 309 310 310 310 310 312 313 312 313 314 315 315 313 313 314 313 310 309
289 290 291 293 292 293 293 295 298 297 297 297 299 302 304 303 298 296 296 298 301 304 309 310 310 310 310 310 310 311 312 314 312 312 313 316 317 316 315 316 316 314 312 312
289 291 293 292 291 292 295 298 298 298 300 300 302 304 304 301 300 301 304 306 309 310 310 310 311 310 310 310 310 312 314 312 310 311 313 315 315 316 317 317 316 316 314 311
292 291 290 287 288 293 296 297 299 299 299 301 303 304 302 305 308 310 310 309 309 310 310 310 310 310 309 309 310 311 310 308 309 310 313 315 314 315 317 316 318 317 317 315
291 292 291 292 292 296 298 297 297 297 301 306 308 309 310 311 312 312 310 309 309 309 309 309 308 308 307 309 310 309 309 308 310 310 314 315 315 317 316 316 319 318 317 316
298 296 295 295 296 297 298 299 301 303 306 308 310 310 310 311 311 309 307 308 307 306 307 308 307 307 307 306 306 307 306 308 309 311 314 314 316 317 317 317 318 324 321 322
301 299 298 298 301 299 303 306 308 309 308 308 307 308 311 311 308 307 307 306 305 306 307 307 306 305 303 303 305 306 304 310 311 313 314 316 318 318 318 318 322 326 332 333
294 295 296 301 300 304 307 309 307 306 305 305 306 308 306 306 307 306 305 305 307 307 307 307 304 303 302 303 304 306 308 312 315 314 316 319 319 317 320 323 324 331 333 330